Location: ?kun?ru
(16.3916°N, 80.8194°E)
Time: 17:13:30
(UTC+00:00)

Daily predictions for brighter satellites

Satellite Brightness Start Highest point End
(mag) Time Altitude Azimuth Time Altitude Azimuth Time Altitude Azimuth
Cosmos 2228 2.9 13:17:50 10° S 13:22:02 69° E 13:26:16 10° N
SPOT 1/Viking Rocket 3.7 13:20:41 10° SSE 13:25:43 55° ENE 13:30:45 10° N
Resurs 1-3 3.8 13:25:55 10° SSE 13:30:04 50° ENE 13:34:13 10° N
Cosmos 2369 Rocket 2.9 13:25:54 10° N 13:31:05 36° ENE 13:36:12 10° SE
Cosmos 1745 Rocket 4.4 13:26:04 10° NNE 13:31:59 43° E 13:37:56 10° SSE
Cosmos 1833 Rocket 4.4 13:30:55 10° ESE 13:32:14 11° E 13:33:33 10° E
Meteor 1-27 4.3 13:28:14 10° S 13:33:48 86° W 13:39:21 10° N
Ariane H10 3.3 13:35:05 10° SSW 13:36:17 13° S 13:37:33 10° SSE
Palapa 6 Rocket 2.9 13:33:48 10° SW 13:37:23 46° SSE 13:41:15 10° E
ARIANE 6 FM1 Upper Stage 2.4 13:44:39 10° SSW 13:48:41 77° ESE 13:52:40 10° NNE
GMS 1 Rocket B 4.2 13:46:47 10° SW 13:50:42 64° SSE 13:54:43 10° ENE
ASC 2 Rocket 3.9 13:46:39 10° SW 13:50:46 38° SSE 13:55:23 13° E
Cosmos 1709 Rocket 4.4 13:45:56 10° NNE 13:51:58 45° E 13:57:59 10° SSE
NOAA 6 4.4 13:47:03 10° S 13:52:06 67° WSW 13:57:08 10° NNW
Meteor 2-3 Rocket 4.0 13:50:11 10° N 13:55:58 75° W 14:01:45 10° S
Ariane H10+ 4.4 13:38:38 10° W 13:57:03 52° SSW 14:04:30 19° ESE
Meteor 1-31 Rocket 2.9 13:53:57 10° S 13:57:25 63° WSW 14:00:56 10° NNW
Cosmos 1782 3.7 13:58:27 23° ESE 13:59:17 25° E 14:02:20 10° NE
USA 234 3.5 13:53:22 10° NNE 13:59:52 75° NW 14:06:23 10° SW
CZ-4 R/B 2.6 13:59:45 21° E 14:00:44 23° ENE 14:03:53 10° NNE
ATLAS 2A CENTAUR R/B 4.1 13:36:33 10° WSW 14:05:23 86° SSE 14:10:49 11° ENE
SL-08 R/B 3.4 14:05:16 10° N 14:10:04 81° WNW 14:14:47 10° SSW
ATLAS 2A CENTAUR R/B 1.6 14:10:08 10° WNW 14:11:45 40° NW 14:11:45 40° NW
Cosmos 724 4.3 14:07:36 10° NNW 14:13:49 82° ENE 14:18:09 20° SSE
SJ-6B 2.7 14:11:06 16° S 14:13:54 77° W 14:17:33 10° NNW
Cosmos 1758 Rocket 3.6 14:10:31 10° N 14:14:42 54° E 14:16:35 30° SSE
CZ-4B R/B 4.4 14:14:48 22° E 14:15:39 22° ENE 14:19:49 10° NNE
Resurs 01 Rocket 1.5 14:13:18 22° SSE 14:16:00 68° ENE 14:20:20 10° N
CZ-2C R/B 2.3 14:16:37 47° SE 14:17:17 61° ENE 14:20:32 10° N
DELTA 2 R/B(2) 4.1 14:18:14 10° WNW 14:19:47 51° WNW 14:19:47 51° WNW
ATLAS 5 CENTAUR R/B 2.5 14:16:11 10° NNW 14:21:56 76° WSW 14:26:52 20° SSE
GPS 2-15 Rocket1 2.9 14:18:54 10° WNW 14:23:28 85° NNE 14:25:02 41° E
USA 186 4.2 14:26:24 10° NNE 14:26:24 10° NNE 14:26:25 10° NNE
USA 308 2.4 14:20:34 10° SW 14:24:36 88° ESE 14:27:27 15° NE
Cosmos 1606 Rocket 3.4 14:22:03 13° S 14:26:00 84° E 14:30:25 10° N
Cosmos 1602 Rocket 3.7 14:22:06 10° N 14:26:14 49° E 14:26:42 46° ESE
Cosmos 2297 4.4 14:21:12 10° NNW 14:26:39 52° WSW 14:31:45 12° S
CSL-04 Rocket 4.1 14:26:44 36° ESE 14:28:07 42° ENE 14:33:09 10° N
Cosmos 1607 4.1 14:23:27 10° NNW 14:29:32 68° WSW 14:33:35 22° S
ATLAS CENTAUR R/B 2.4 14:28:16 10° SW 14:31:28 38° WNW 14:34:50 10° N
ADEOS 3.6 14:30:22 40° SE 14:31:59 57° ENE 14:37:05 10° N
Nadezhda 1 Rocket 4.4 14:32:32 36° E 14:33:01 37° E 14:38:30 10° NNE
Helios 1A 4.2 14:30:12 10° NNE 14:32:10 25° NE 14:32:10 25° NE
Cosmos 2151 4.3 14:30:25 10° NNE 14:32:43 24° NE 14:32:43 24° NE
Atlas Centaur 2 2.9 14:27:53 10° NW 14:34:20 63° NNE 14:37:47 34° E
CZ-3 Stage 3 3.6 14:15:12 10° WNW 14:35:53 50° SW 14:39:22 27° SSE
GPS 2-17 Rocket1 3.2 14:33:20 10° WSW 14:37:12 49° S 14:37:12 49° S
Intercosmos 24 Rocket 4.3 14:34:00 10° N 14:37:37 67° E 14:37:41 67° E
CSL-04 Debris 4.3 14:36:42 45° ESE 14:37:58 55° ENE 14:43:16 10° N
Cosmos 1400 Rocket 4.4 14:45:12 22° NNE 14:45:12 22° NNE 14:46:37 10° NNE
SPOT 5 4.0 14:47:57 27° NE 14:47:57 27° NE 14:50:24 10° N
Cosmos 1898 Rocket 3.4 14:41:39 10° NNW 14:46:50 87° WSW 14:48:05 53° S
CRYOSAT 2 4.2 14:51:53 71° SSE 14:52:26 88° E 14:57:19 10° N
NOSS 3-1 (C) 2.9 14:48:25 10° SSW 14:52:48 65° WNW 14:57:24 10° NNE
Aureole 1 Rocket 4.4 14:48:16 10° NNW 14:54:26 65° WSW 14:58:30 27° S
Feng Yun 1-1 Rocket 4.1 14:55:59 67° ESE 14:56:23 70° ENE 15:01:59 10° N
Cosmos 2184 Rocket 4.4 14:50:26 10° NNE 14:55:55 44° ENE 14:55:55 44° ENE
Okean O Rocket 3.6 15:05:34 19° NNE 15:05:34 19° NNE 15:07:02 10° N
Cosmos 1833 Rocket 3.3 15:10:09 10° SSW 15:15:36 53° WNW 15:21:06 10° N
Centaur AC-146 2.8 15:13:09 10° W 15:16:21 71° N 15:16:24 71° N
CZ-4 R/B 4.2 15:34:57 13° W 15:34:57 13° W 15:36:36 10° WNW
Terra 4.3 15:54:08 16° N 15:54:08 16° N 15:55:07 10° N
CZ-4C R/B 3.6 16:10:51 10° NNW 16:17:13 58° NNW 16:17:13 58° NNW
Atlas Centaur 2 4.3 16:16:26 10° WNW 16:19:47 28° W 16:19:47 28° W
Milstar 3 Cent rocket 4.2 16:46:33 10° WNW 17:00:33 60° WNW 17:00:33 60° WNW
Milstar 3 4.1 20:40:28 50° NNW 20:41:02 51° NNW 20:48:45 10° ENE
Cosmos 2227 Rocket 4.4 21:26:36 15° NNW 21:26:36 15° NNW 21:27:43 10° NNW
H-2A R/B 3.4 21:23:44 10° NE 21:28:35 35° E 21:28:35 35° E
Cosmos 2082 4.3 21:42:23 50° N 21:42:23 50° N 21:46:35 10° NNE
Tsikada Rocket 4.5 21:45:27 48° NNW 21:45:27 48° NNW 21:49:59 10° N
Cosmos 1844 Rocket 4.2 21:50:35 22° SE 21:52:50 30° ESE 21:57:38 10° NE
SPELTRA 4.3 21:57:52 33° SSE 21:57:52 33° SSE 22:05:42 10° ESE
CZ-2C R/B 2.9 21:54:31 10° NNE 21:58:53 47° E 21:59:12 47° ESE
Hubble Space Telescope 2.5 22:03:50 25° N 22:03:50 25° N 22:06:16 10° NE
Cosmos 1634 Rocket 4.3 22:00:47 10° N 22:07:03 66° E 22:13:08 11° SSE
SWIFT 4.0 22:09:45 23° ESE 22:09:45 23° ESE 22:11:25 10° E
COSMOS 2455 4.4 22:05:12 10° N 22:10:35 34° ENE 22:15:58 10° SE
Cosmos 1992 Rocket 4.1 22:06:05 10° NNW 22:10:19 56° NW 22:10:19 56° NW
ADEOS II 4.4 22:11:32 10° NW 22:11:41 10° NW 22:11:41 10° NW
Cosmos 2263 Rocket 3.9 22:17:04 17° NW 22:17:04 17° NW 22:19:29 10° NNW
Cosmos 2237 Rocket 3.1 22:14:37 10° NNW 22:17:58 32° WNW 22:17:58 32° WNW
Cosmos 489 Rocket 4.3 22:19:40 10° NNW 22:25:51 77° WSW 22:32:01 10° S
YAOGAN 6 4.0 22:28:58 10° NE 22:30:38 20° E 22:30:38 20° E
Cosmos 2242 Rocket 3.8 22:37:10 47° WSW 22:37:45 50° W 22:42:09 10° N
DMSP B5D2-2 4.3 22:36:56 38° SW 22:38:10 45° W 22:43:08 10° NNW
CZ-4 R/B 4.2 22:34:38 10° NNE 22:39:25 64° ESE 22:43:51 12° S
DELTA 2 R/B (1) 3.7 22:37:48 31° W 22:40:05 50° SW 22:45:28 10° SSE
IRS-1D 4.0 22:38:03 10° NNE 22:43:18 63° ESE 22:48:28 10° S
Cosmos 1190 Rocket 4.1 22:41:41 33° SW 22:43:51 59° WNW 22:49:03 10° N
Cosmos 1939 Rocket 3.1 22:43:26 10° NNE 22:47:03 59° E 22:49:56 15° S
Delta 168 3.7 22:45:20 18° NW 22:47:14 36° NNE 22:50:50 10° E
Cosmos 2251 Rocket 4.2 22:49:15 29° WSW 22:50:34 33° WNW 22:55:17 10° N
Centaur Rocket 2.2 22:50:35 29° WNW 22:52:16 77° N 22:54:36 10° E
Cosmos 1954 Rocket 4.0 22:49:24 23° SSW 22:52:38 64° WNW 22:57:52 10° N
SL-08 RB Rocket 3.8 22:49:17 10° NNE 22:53:43 75° E 22:58:13 10° S
SL-16 R/B 2.9 22:49:43 10° S 22:55:25 40° WSW 23:01:07 10° NNW
SL-16 R/B 2.2 22:50:10 10° NNW 22:55:48 86° ENE 23:01:27 10° SSE
Cosmos 2221 Rocket 4.3 22:52:19 10° S 22:56:41 55° E 23:01:00 10° NNE
Cosmos 1782 Rocket 4.1 22:54:25 10° NNW 22:58:22 35° W 23:00:28 22° SW
ATLAS 2A CENTAUR R/B 4.2 22:54:45 21° W 22:59:08 52° SSW 23:24:57 10° SE
Cosmos 1025 Rocket 4.1 22:55:48 10° SSE 22:59:54 45° E 23:03:58 10° NNE
JB-3 4.1 22:56:36 10° S 23:00:30 82° WSW 23:04:21 10° NNW
Stardust Del rocket 4.1 22:58:40 25° W 23:01:17 78° NNW 23:09:13 10° ENE
In-Cosmos 22 Rocket 4.0 22:56:17 10° S 23:01:34 90° W 23:06:54 10° N
Cosmos 909 Rocket 4.1 22:55:22 10° NNW 23:02:28 90° WSW 23:08:43 10° SSE
Nadezhda 4 Rocket 4.0 22:57:43 10° SSW 23:03:41 56° W 23:09:39 10° N
Cosmos 2180 Rocket 4.4 22:57:54 10° N 23:04:10 86° W 23:10:20 10° S
ARGOS 3.3 22:59:05 10° N 23:04:15 53° WNW 23:09:07 12° SSW
H-2A R/B 3.6 23:04:05 10° NNW 23:07:33 18° WNW 23:09:05 16° W
USA 81 4.1 23:05:02 10° SSW 23:10:12 59° W 23:15:22 10° N
GPS 2-17 Rocket1 4.4 23:10:12 17° SW 23:11:05 18° SSW 23:14:01 10° SSE
Cosmos 2195 Rocket 4.5 23:05:57 10° S 23:12:14 81° W 23:18:28 10° N
GOES 2 Rocket 3.1 23:11:23 19° WSW 23:14:25 80° SSE 23:19:21 10° ENE
Cosmos 1484 Rocket 3.9 23:12:59 10° NNE 23:16:12 38° E 23:19:23 10° S
Cosmos 967 Rocket 4.5 23:10:22 10° NNW 23:16:44 80° WSW 23:23:08 10° SSE
ACS3 Solar Sail 4.0 23:16:01 10° NE 23:20:53 25° E 23:25:49 10° SSE
Milstar 3 4.1 23:19:21 10° WNW 23:26:30 35° N 23:32:33 10° ENE
Helios 1A Rocket 4.2 23:28:31 11° SW 23:30:09 14° W 23:32:06 10° WNW
SJ-11-01 4.2 23:25:34 10° N 23:30:11 84° WNW 23:34:48 10° SSW
USA 238 DEB 4.2 23:24:24 10° NW 23:32:06 53° WSW 23:39:58 10° S
ARIANE 5 R/B 3.7 23:28:35 10° WSW 23:32:10 15° SSW 23:34:38 10° SSE
USA 238 4.2 23:24:30 10° NW 23:32:12 53° WSW 23:40:05 10° S
Cosmos 968 Rocket 3.6 23:27:37 10° S 23:32:41 77° ESE 23:37:46 10° NNE
FUSE 4.1 23:30:35 10° WSW 23:35:55 72° NNW 23:41:17 10° ENE
Cosmos 1844 Rocket 4.0 23:32:24 10° WSW 23:36:31 21° WNW 23:40:40 10° NNW
Delta 198 4.4 23:30:22 10° WSW 23:36:50 90° NNW 23:43:00 10° ENE
Cosmos 1763 Rocket 3.5 23:31:41 10° NNW 23:36:53 87° WSW 23:41:58 10° SSE
SJ 16-02 1.9 23:36:11 10° SW 23:40:06 36° WNW 23:44:04 10° N
Cosmos 2026 Rocket 4.2 23:34:55 10° SSW 23:41:01 53° W 23:47:12 10° N
Hubble Space Telescope 3.1 23:41:27 10° NW 23:43:33 14° N 23:45:39 10° NNE
Cosmos 1606 3.8 23:42:12 10° NW 23:44:15 17° W 23:46:18 10° SW
Cosmos 1943 3.5 23:41:44 10° NNW 23:47:24 75° ENE 23:53:04 10° SSE
